,,PA_Meas_PMT16A,,PR_Meas_QMR101_102,,RH_Meas_QMH101,,SR_Meas_QMS101,,TA_Meas_QMH101,,GenWind,,GenWind,
time,status,PA,status,PR,status,RH,status,SR,status,TA,status,DirAvg,status,SpdAvg,
2013-09-07, 00:00:04,VALID,919.591,VALID,0,VALID,90.4671,VALID,0,VALID,18.3199,VALID,123,VALID,0,
2013-09-07, 00:01:04,VALID,919.585,VALID,0,VALID,90.6958,VALID,0,VALID,18.3199,VALID,110,VALID,0,
2013-09-07, 00:02:04,VALID,919.579,VALID,0,VALID,90.6958,VALID,0,VALID,18.2809,VALID,110,VALID,0,
2013-09-07, 00:03:04,VALID,919.557,VALID,0,VALID,90.4595,VALID,0,VALID,18.2615,VALID,110,VALID,0,
2013-09-07, 00:04:04,VALID,919.539,VALID,0,VALID,90.4213,VALID,0,VALID,18.2796,VALID,111,VALID,0,
2013-09-07, 00:05:04,VALID,919.545,VALID,0,VALID,90.368,VALID,0.107441,VALID,18.299,VALID,114,VALID,0,
2013-09-07, 00:06:04,VALID,919.52,VALID,0,VALID,90.4137,VALID,0,VALID,18.3199,VALID,122,VALID,0,
2013-09-07, 00:07:04,VALID,919.496,VALID,0,VALID,90.711,VALID,0,VALID,18.299,VALID,123,VALID,0,
2013-09-07, 00:08:04,VALID,919.472,VALID,0,VALID,90.9473,VALID,0,VALID,18.2796,VALID,123,VALID,0,
2013-09-07, 00:09:04,VALID,919.492,VALID,0,VALID,91.2752,VALID,0,VALID,18.2601,VALID,123,VALID,0,
2013-09-07, 00:10:04,VALID,919.474,VALID,0,VALID,91.3743,VALID,0,VALID,18.242,VALID,123,VALID,0,
2013-09-07, 00:11:04,VALID,919.453,VALID,0,VALID,91.3819,VALID,0,VALID,18.2225,VALID,123,VALID,0,
2013-09-07, 00:12:04,VALID,919.465,VALID,0,VALID,91.2599,VALID,0,VALID,18.203,VALID,103,VALID,0,
2013-09-07, 00:13:04,VALID,919.437,VALID,0,VALID,91.2675,VALID,0,VALID,18.203,VALID,103,VALID,0,
2013-09-07, 00:14:04,VALID,919.431,VALID,0,VALID,91.2675,VALID,0,VALID,18.203,VALID,103,VALID,0,
2013-09-07, 00:15:04,VALID,919.401,VALID,0,VALID,91.1608,VALID,0,VALID,18.203,VALID,104,VALID,0,
2013-09-07, 00:16:04,VALID,919.408,VALID,0,VALID,90.9702,VALID,0,VALID,18.2225,VALID,103,VALID,0,
2013-09-07, 00:17:04,VALID,919.381,VALID,0,VALID,90.2231,VALID,0,VALID,18.3004,VALID,103,VALID,0,
2013-09-07, 00:18:04,VALID,919.381,VALID,0,VALID,89.7505,VALID,0,VALID,18.3589,VALID,103,VALID,0,
2013-09-07, 00:19:04,VALID,919.323,VALID,0,VALID,88.6984,VALID,0,VALID,18.4369,VALID,103,VALID,0,
2013-09-07, 00:20:04,VALID,919.353,VALID,0,VALID,87.9971,VALID,0,VALID,18.494,VALID,103,VALID,0,
2013-09-07, 00:21:04,VALID,919.286,VALID,0,VALID,87.5168,VALID,0,VALID,18.5914,VALID,103,VALID,0,
2013-09-07, 00:22:04,VALID,919.288,VALID,0,VALID,87.4101,VALID,0,VALID,18.6513,VALID,103,VALID,0,
2013-09-07, 00:23:04,VALID,919.292,VALID,0,VALID,87.6083,VALID,0,VALID,18.6499,VALID,103,VALID,0,
2013-09-07, 00:24:04,VALID,919.295,VALID,0,VALID,87.837,VALID,0,VALID,18.6708,VALID,103,VALID,0,
2013-09-07, 00:25:04,VALID,919.256,VALID,0,VALID,88.7899,VALID,0,VALID,18.6708,VALID,103,VALID,0,
2013-09-07, 00:26:04,VALID,919.243,VALID,0,VALID,88.8433,VALID,0,VALID,18.6109,VALID,103,VALID,0,
2013-09-07, 00:27:04,VALID,919.2,VALID,0,VALID,88.6603,VALID,0,VALID,18.5734,VALID,103,VALID,0,
2013-09-07, 00:28:04,VALID,919.193,VALID,0,VALID,88.7137,VALID,0,VALID,18.5358,VALID,103,VALID,0,
2013-09-07, 00:29:04,VALID,919.174,VALID,0,VALID,88.7442,VALID,0,VALID,18.4759,VALID,103,VALID,0,
2013-09-07, 00:30:04,VALID,919.134,VALID,0,VALID,89.2397,VALID,0,VALID,18.4745,VALID,103,VALID,0,
2013-09-07, 00:31:04,VALID,919.153,VALID,0,VALID,89.72,VALID,0,VALID,18.4954,VALID,103,VALID,0,
2013-09-07, 00:32:04,VALID,919.137,VALID,0,VALID,89.7886,VALID,0,VALID,18.455,VALID,103,VALID,0,
2013-09-07, 00:33:04,VALID,919.138,VALID,0,VALID,89.6514,VALID,0,VALID,18.4564,VALID,103,VALID,0,
2013-09-07, 00:34:04,VALID,919.127,VALID,0,VALID,89.6742,VALID,0,VALID,18.4369,VALID,103,VALID,0,
2013-09-07, 00:35:04,VALID,919.088,VALID,0,VALID,90.1316,VALID,0,VALID,18.4759,VALID,103,VALID,0,
2013-09-07, 00:36:04,VALID,919.069,VALID,0,VALID,90.5204,VALID,0,VALID,18.4759,VALID,103,VALID,0,
2013-09-07, 00:37:04,VALID,919.06,VALID,0,VALID,90.4442,VALID,0,VALID,18.4564,VALID,103,VALID,0,
2013-09-07, 00:38:04,VALID,919.046,VALID,0,VALID,90.4061,VALID,0,VALID,18.4369,VALID,103,VALID,0,
2013-09-07, 00:39:04,VALID,919.023,VALID,0,VALID,90.0097,VALID,0,VALID,18.4174,VALID,103,VALID,0,
2013-09-07, 00:40:04,VALID,919.013,VALID,0,VALID,89.7505,VALID,0,VALID,18.3979,VALID,103,VALID,0,
2013-09-07, 00:41:04,VALID,919.024,VALID,0,VALID,89.7962,VALID,0,VALID,18.3784,VALID,103,VALID,0,
2013-09-07, 00:42:04,VALID,919.031,VALID,0,VALID,90.0935,VALID,0,VALID,18.3784,VALID,103,VALID,0,
2013-09-07, 00:43:04,VALID,918.995,VALID,0,VALID,90.3832,VALID,0,VALID,18.3589,VALID,103,VALID,0,
2013-09-07, 00:44:04,VALID,918.981,VALID,0,VALID,90.5204,VALID,0,VALID,18.3394,VALID,103,VALID,0,
2013-09-07, 00:45:04,VALID,918.97,VALID,0,VALID,90.5357,VALID,0,VALID,18.3004,VALID,103,VALID,0,
2013-09-07, 00:46:04,VALID,918.962,VALID,0,VALID,90.7339,VALID,0,VALID,18.2809,VALID,104,VALID,0,
2013-09-07, 00:47:04,VALID,918.929,VALID,0,VALID,90.7949,VALID,0,VALID,18.2615,VALID,112,VALID,0,
2013-09-07, 00:48:04,VALID,918.917,VALID,0,VALID,90.9169,VALID,0,VALID,18.2615,VALID,113,VALID,0,
2013-09-07, 00:49:04,VALID,918.892,VALID,0,VALID,91.1989,VALID,0,VALID,18.2211,VALID,126,VALID,0,
2013-09-07, 00:50:04,VALID,918.874,VALID,0,VALID,91.2599,VALID,0,VALID,18.2225,VALID,126,VALID,0,
2013-09-07, 00:51:04,VALID,918.888,VALID,0,VALID,91.3209,VALID,0,VALID,18.203,VALID,126,VALID,0,
2013-09-07, 00:52:04,VALID,918.873,VALID,0,VALID,91.3666,VALID,0,VALID,18.203,VALID,121,VALID,0,
2013-09-07, 00:53:04,VALID,918.895,VALID,0,VALID,91.4886,VALID,0,VALID,18.1835,VALID,121,VALID,0,
2013-09-07, 00:54:04,VALID,918.841,VALID,0,VALID,91.5344,VALID,0,VALID,18.1445,VALID,121,VALID,0,
2013-09-07, 00:55:04,VALID,918.836,VALID,0,VALID,91.6487,VALID,0,VALID,18.1055,VALID,112,VALID,0,
2013-09-07, 00:56:04,VALID,918.821,VALID,0,VALID,91.7249,VALID,0,VALID,18.086,VALID,105,VALID,0,
2013-09-07, 00:57:04,VALID,918.827,VALID,0,VALID,91.824,VALID,0,VALID,18.086,VALID,103,VALID,0,
2013-09-07, 00:58:04,VALID,918.774,VALID,0,VALID,91.7326,VALID,0,VALID,18.086,VALID,99,VALID,0,
2013-09-07, 00:59:04,VALID,918.775,VALID,0,VALID,91.8164,VALID,0,VALID,18.0846,VALID,89,VALID,0,
2013-09-07, 01:00:04,VALID,918.74,VALID,0,VALID,91.9765,VALID,0,VALID,18.086,VALID,88,VALID,0,
2013-09-07, 01:01:04,VALID,918.702,VALID,0,VALID,92.0451,VALID,0,VALID,18.0665,VALID,90,VALID,0,
2013-09-07, 01:02:04,VALID,918.727,VALID,0,VALID,92.0756,VALID,0,VALID,18.0665,VALID,88,VALID,0,
2013-09-07, 01:03:04,VALID,918.686,VALID,0,VALID,92.0299,VALID,0,VALID,18.0457,VALID,95,VALID,0,
2013-09-07, 01:04:04,VALID,918.668,VALID,0,VALID,91.9231,VALID,0,VALID,18.047,VALID,105,VALID,0,
2013-09-07, 01:05:04,VALID,918.642,VALID,0,VALID,91.885,VALID,0,VALID,18.086,VALID,115,VALID,0,
2013-09-07, 01:06:04,VALID,918.636,VALID,0,VALID,91.9689,VALID,0,VALID,18.086,VALID,123,VALID,0,
2013-09-07, 01:07:04,VALID,918.637,VALID,0,VALID,91.9994,VALID,0,VALID,18.086,VALID,126,VALID,0,
2013-09-07, 01:08:04,VALID,918.604,VALID,0,VALID,92.1214,VALID,0,VALID,18.086,VALID,126,VALID,0,
2013-09-07, 01:09:04,VALID,918.573,VALID,0,VALID,91.9994,VALID,0,VALID,18.0665,VALID,126,VALID,0,
2013-09-07, 01:10:04,VALID,918.548,VALID,0,VALID,91.8317,VALID,0,VALID,18.1055,VALID,126,VALID,0,
2013-09-07, 01:11:04,VALID,918.558,VALID,0,VALID,91.5267,VALID,0,VALID,18.1264,VALID,126,VALID,0,
2013-09-07, 01:12:04,VALID,918.531,VALID,0,VALID,91.5496,VALID,0,VALID,18.1445,VALID,126,VALID,0,
2013-09-07, 01:13:04,VALID,918.53,VALID,0,VALID,91.6182,VALID,0,VALID,18.1445,VALID,126,VALID,0,
2013-09-07, 01:14:04,VALID,918.495,VALID,0,VALID,91.7859,VALID,0,VALID,18.125,VALID,126,VALID,0,
2013-09-07, 01:15:04,VALID,918.473,VALID,0,VALID,91.5877,VALID,0,VALID,18.1069,VALID,99,VALID,0,
2013-09-07, 01:16:04,VALID,918.454,VALID,0,VALID,91.0998,VALID,0,VALID,18.125,VALID,99,VALID,0,
2013-09-07, 01:17:04,VALID,918.429,VALID,0,VALID,90.4976,VALID,0,VALID,18.2044,VALID,91,VALID,0,
2013-09-07, 01:18:04,VALID,918.4,VALID,0,VALID,89.8648,VALID,0,VALID,18.2615,VALID,92,VALID,0,
2013-09-07, 01:19:04,VALID,918.384,VALID,0,VALID,89.3312,VALID,0,VALID,18.3004,VALID,92,VALID,0,
2013-09-07, 01:20:04,VALID,918.415,VALID,0,VALID,88.9729,VALID,0,VALID,18.3394,VALID,92,VALID,0,
2013-09-07, 01:21:04,VALID,918.358,VALID,0,VALID,88.9653,VALID,0,VALID,18.3784,VALID,87,VALID,0,
2013-09-07, 01:22:04,VALID,918.385,VALID,0,VALID,88.7671,VALID,0,VALID,18.3979,VALID,85,VALID,0,
2013-09-07, 01:23:04,VALID,918.353,VALID,0,VALID,89.1482,VALID,0,VALID,18.4174,VALID,80,VALID,0,
2013-09-07, 01:24:04,VALID,918.372,VALID,0,VALID,89.2092,VALID,0,VALID,18.3979,VALID,80,VALID,0,
2013-09-07, 01:25:04,VALID,918.369,VALID,0,VALID,89.4913,VALID,0,VALID,18.3784,VALID,80,VALID,0,
2013-09-07, 01:26:04,VALID,918.393,VALID,0,VALID,89.5142,VALID,0,VALID,18.3784,VALID,60,VALID,0,
2013-09-07, 01:27:04,VALID,918.363,VALID,0,VALID,89.6437,VALID,0,VALID,18.3589,VALID,31,VALID,0,
2013-09-07, 01:28:04,VALID,918.349,VALID,0,VALID,89.9411,VALID,0,VALID,18.3408,VALID,31,VALID,0,
2013-09-07, 01:29:04,VALID,918.361,VALID,0,VALID,90.246,VALID,0,VALID,18.3004,VALID,31,VALID,0,
2013-09-07, 01:30:04,VALID,918.353,VALID,0,VALID,90.772,VALID,0,VALID,18.2809,VALID,31,VALID,0,
2013-09-07, 01:31:04,VALID,918.307,VALID,0,VALID,91.298,VALID,0,VALID,18.242,VALID,31,VALID,0,
2013-09-07, 01:32:04,VALID,918.278,VALID,0,VALID,91.7478,VALID,0,VALID,18.203,VALID,31,VALID,0,
2013-09-07, 01:33:04,VALID,918.267,VALID,0,VALID,92.007,VALID,0,VALID,18.164,VALID,31,VALID,0,
2013-09-07, 01:34:04,VALID,918.233,VALID,0,VALID,92.19,VALID,0,VALID,18.1445,VALID,31,VALID,0,
2013-09-07, 01:35:04,VALID,918.242,VALID,0,VALID,92.2205,VALID,0,VALID,18.125,VALID,31,VALID,0,
2013-09-07, 01:36:04,VALID,918.204,VALID,0,VALID,92.2205,VALID,0,VALID,18.1055,VALID,31,VALID,0,
2013-09-07, 01:37:04,VALID,918.177,VALID,0,VALID,92.2433,VALID,0,VALID,18.0679,VALID,31,VALID,0,
2013-09-07, 01:38:04,VALID,918.151,VALID,0,VALID,92.2814,VALID,0,VALID,18.0275,VALID,74,VALID,0,
2013-09-07, 01:39:04,VALID,918.126,VALID,0,VALID,92.2586,VALID,0,VALID,18.008,VALID,74,VALID,0,
2013-09-07, 01:40:04,VALID,918.118,VALID,0,VALID,92.2281,VALID,0,VALID,18.008,VALID,114,VALID,0,
2013-09-07, 01:41:04,VALID,918.093,VALID,0,VALID,92.3119,VALID,0,VALID,18.008,VALID,113,VALID,0,
2013-09-07, 01:42:04,VALID,918.067,VALID,0,VALID,92.4797,VALID,0,VALID,17.9886,VALID,114,VALID,0,
2013-09-07, 01:43:04,VALID,918.081,VALID,0,VALID,92.6245,VALID,0,VALID,17.9691,VALID,126,VALID,0,
2013-09-07, 01:44:04,VALID,918.066,VALID,0,VALID,92.7236,VALID,0,VALID,17.9691,VALID,125,VALID,0,
2013-09-07, 01:45:04,VALID,918.049,VALID,0,VALID,92.8456,VALID,0,VALID,17.9496,VALID,125,VALID,0,
2013-09-07, 01:46:04,VALID,918.038,VALID,0,VALID,93.0057,VALID,0,VALID,17.9496,VALID,125,VALID,0,
2013-09-07, 01:47:04,VALID,918.018,VALID,0,VALID,93.1505,VALID,0,VALID,17.9301,VALID,125,VALID,0,
2013-09-07, 01:48:04,VALID,917.988,VALID,0,VALID,93.2572,VALID,0,VALID,17.9119,VALID,125,VALID,0,
2013-09-07, 01:49:04,VALID,917.965,VALID,0,VALID,93.3792,VALID,0,VALID,17.8716,VALID,125,VALID,0,
2013-09-07, 01:50:04,VALID,917.94,VALID,0,VALID,93.3335,VALID,0,VALID,17.8131,VALID,124,VALID,0,
2013-09-07, 01:51:04,VALID,917.933,VALID,0,VALID,93.2877,VALID,0,VALID,17.8131,VALID,120,VALID,0,
2013-09-07, 01:52:04,VALID,917.925,VALID,0,VALID,93.1048,VALID,0,VALID,17.8326,VALID,120,VALID,0,
2013-09-07, 01:53:04,VALID,917.891,VALID,0,VALID,92.8456,VALID,0,VALID,17.873,VALID,120,VALID,0,
2013-09-07, 01:54:04,VALID,917.873,VALID,0,VALID,92.6702,VALID,0,VALID,17.8911,VALID,127,VALID,0,
2013-09-07, 01:55:04,VALID,917.848,VALID,0,VALID,92.5864,VALID,0,VALID,17.9106,VALID,129,VALID,0,
2013-09-07, 01:56:04,VALID,917.837,VALID,0,VALID,92.5254,VALID,0,VALID,17.9301,VALID,126,VALID,0,
2013-09-07, 01:57:04,VALID,917.848,VALID,0,VALID,92.4568,VALID,0,VALID,17.9106,VALID,127,VALID,0,
2013-09-07, 01:58:04,VALID,917.844,VALID,0,VALID,92.3882,VALID,0,VALID,17.9301,VALID,122,VALID,0,
2013-09-07, 01:59:04,VALID,917.817,VALID,0,VALID,92.251,VALID,0,VALID,17.9301,VALID,131,VALID,0,
2013-09-07, 02:00:04,VALID,917.814,VALID,0,VALID,92.2128,VALID,0,VALID,17.9301,VALID,130,VALID,0,
2013-09-07, 02:01:04,VALID,917.812,VALID,0,VALID,92.2738,VALID,0,VALID,17.9301,VALID,130,VALID,0,
2013-09-07, 02:02:04,VALID,917.807,VALID,0,VALID,92.3043,VALID,0,VALID,17.9301,VALID,127,VALID,0,
2013-09-07, 02:03:04,VALID,917.76,VALID,0,VALID,92.3196,VALID,0,VALID,17.9704,VALID,128,VALID,0,
2013-09-07, 02:04:04,VALID,917.732,VALID,0,VALID,92.2891,VALID,0,VALID,17.9496,VALID,131,VALID,0,
2013-09-07, 02:05:04,VALID,917.716,VALID,0,VALID,92.3272,VALID,0,VALID,17.9287,VALID,131,VALID,0,
2013-09-07, 02:06:04,VALID,917.709,VALID,0,VALID,92.2814,VALID,0,VALID,17.9496,VALID,129,VALID,0,
2013-09-07, 02:07:04,VALID,917.714,VALID,0,VALID,92.251,VALID,0,VALID,17.9691,VALID,127,VALID,0,
2013-09-07, 02:08:04,VALID,917.648,VALID,0,VALID,92.2738,VALID,0,VALID,17.9691,VALID,131,VALID,0,
2013-09-07, 02:09:04,VALID,917.662,VALID,0,VALID,92.4949,VALID,0,VALID,17.9899,VALID,131,VALID,0,
2013-09-07, 02:10:04,VALID,917.61,VALID,0,VALID,92.4644,VALID,0,VALID,17.9691,VALID,134,VALID,0,
2013-09-07, 02:11:04,VALID,917.62,VALID,0,VALID,92.4263,VALID,0,VALID,17.9899,VALID,134,VALID,0,
2013-09-07, 02:12:04,VALID,917.581,VALID,0,VALID,92.3424,VALID,0,VALID,17.9886,VALID,133,VALID,0,
2013-09-07, 02:13:04,VALID,917.599,VALID,0,VALID,92.2891,VALID,0,VALID,17.9886,VALID,133,VALID,0,
2013-09-07, 02:14:04,VALID,917.563,VALID,0,VALID,92.2052,VALID,0,VALID,18.008,VALID,135,VALID,0,
2013-09-07, 02:15:04,VALID,917.52,VALID,0,VALID,92.1061,VALID,0,VALID,17.9886,VALID,137,VALID,0,
2013-09-07, 02:16:04,VALID,917.49,VALID,0,VALID,91.9841,VALID,0,VALID,17.9886,VALID,136,VALID,0,
2013-09-07, 02:17:04,VALID,917.485,VALID,0,VALID,91.9231,VALID,0,VALID,18.008,VALID,136,VALID,0,
2013-09-07, 02:18:04,VALID,917.474,VALID,0,VALID,91.6716,VALID,0,VALID,18.0275,VALID,134,VALID,0,
2013-09-07, 02:19:04,VALID,917.455,VALID,0,VALID,91.5267,VALID,0,VALID,18.0679,VALID,134,VALID,0,
2013-09-07, 02:20:04,VALID,917.43,VALID,0,VALID,91.42,VALID,0,VALID,18.047,VALID,134,VALID,0,
2013-09-07, 02:21:04,VALID,917.401,VALID,0,VALID,91.1989,VALID,0,VALID,18.047,VALID,134,VALID,0,
2013-09-07, 02:22:04,VALID,917.396,VALID,0,VALID,91.2752,VALID,0,VALID,18.0665,VALID,134,VALID,0,
2013-09-07, 02:23:04,VALID,917.393,VALID,0,VALID,91.1532,VALID,0,VALID,18.0665,VALID,134,VALID,0,
2013-09-07, 02:24:04,VALID,917.392,VALID,0,VALID,91.1227,VALID,0,VALID,18.0665,VALID,134,VALID,0,
2013-09-07, 02:25:04,VALID,917.382,VALID,0,VALID,91.0007,VALID,0,VALID,18.0874,VALID,134,VALID,0,
2013-09-07, 02:26:04,VALID,917.359,VALID,0,VALID,91.1303,VALID,0,VALID,18.086,VALID,114,VALID,0,
2013-09-07, 02:27:04,VALID,917.337,VALID,0,VALID,91.1379,VALID,0,VALID,18.0665,VALID,135,VALID,0,
2013-09-07, 02:28:04,VALID,917.308,VALID,0,VALID,91.0236,VALID,0,VALID,18.0665,VALID,127,VALID,0,
2013-09-07, 02:29:04,VALID,917.323,VALID,0,VALID,90.9473,VALID,0,VALID,18.0874,VALID,130,VALID,0,
2013-09-07, 02:30:04,VALID,917.289,VALID,0,VALID,90.8635,VALID,0,VALID,18.086,VALID,134,VALID,0,
2013-09-07, 02:31:04,VALID,917.296,VALID,0,VALID,90.9169,VALID,0,VALID,18.1055,VALID,136,VALID,0,
2013-09-07, 02:32:04,VALID,917.285,VALID,0,VALID,91.0312,VALID,0,VALID,18.1055,VALID,139,VALID,0,
2013-09-07, 02:33:04,VALID,917.262,VALID,0,VALID,90.894,VALID,0,VALID,18.1055,VALID,159,VALID,0,
2013-09-07, 02:34:04,VALID,917.273,VALID,0,VALID,90.5204,VALID,0,VALID,18.1055,VALID,148,VALID,0,
2013-09-07, 02:35:04,VALID,917.269,VALID,0,VALID,90.4823,VALID,0,VALID,18.125,VALID,157,VALID,0,
2013-09-07, 02:36:04,VALID,917.264,VALID,0,VALID,90.307,VALID,0,VALID,18.1445,VALID,146,VALID,0,
2013-09-07, 02:37:04,VALID,917.274,VALID,0,VALID,90.0249,VALID,0,VALID,18.1654,VALID,135,VALID,0,
2013-09-07, 02:38:04,VALID,917.245,VALID,0,VALID,89.8877,VALID,0,VALID,18.1849,VALID,135,VALID,0,
2013-09-07, 02:39:04,VALID,917.245,VALID,0,VALID,89.6895,VALID,0,VALID,18.2238,VALID,135,VALID,0,
2013-09-07, 02:40:04,VALID,917.254,VALID,0,VALID,89.537,VALID,0,VALID,18.2225,VALID,135,VALID,0,
2013-09-07, 02:41:04,VALID,917.28,VALID,0,VALID,89.4532,VALID,0,VALID,18.242,VALID,135,VALID,0,
2013-09-07, 02:42:04,VALID,917.247,VALID,0,VALID,89.5294,VALID,0,VALID,18.2628,VALID,135,VALID,0,
2013-09-07, 02:43:04,VALID,917.232,VALID,0,VALID,89.3693,VALID,0,VALID,18.2628,VALID,135,VALID,0,
2013-09-07, 02:44:04,VALID,917.234,VALID,0,VALID,89.4532,VALID,0,VALID,18.242,VALID,135,VALID,0,
2013-09-07, 02:45:04,VALID,917.232,VALID,0,VALID,89.3693,VALID,0,VALID,18.242,VALID,135,VALID,0,
2013-09-07, 02:46:04,VALID,917.256,VALID,0,VALID,89.3464,VALID,0,VALID,18.242,VALID,135,VALID,0,
2013-09-07, 02:47:04,VALID,917.247,VALID,0,VALID,89.4913,VALID,0,VALID,18.2615,VALID,135,VALID,0,
2013-09-07, 02:48:04,VALID,917.255,VALID,0,VALID,89.3464,VALID,0,VALID,18.2615,VALID,135,VALID,0,
2013-09-07, 02:49:04,VALID,917.223,VALID,0,VALID,89.2778,VALID,0,VALID,18.2628,VALID,135,VALID,0,
2013-09-07, 02:50:04,VALID,917.228,VALID,0,VALID,89.194,VALID,0,VALID,18.242,VALID,136,VALID,0,
2013-09-07, 02:51:04,VALID,917.225,VALID,0,VALID,88.9958,VALID,0,VALID,18.242,VALID,131,VALID,0,
2013-09-07, 02:52:04,VALID,917.215,VALID,0,VALID,88.889,VALID,0,VALID,18.242,VALID,138,VALID,0,
2013-09-07, 02:53:04,VALID,917.232,VALID,0,VALID,88.95,VALID,0,VALID,18.2225,VALID,138,VALID,0,
2013-09-07, 02:54:04,VALID,917.225,VALID,0,VALID,89.0796,VALID,0,VALID,18.2225,VALID,138,VALID,0,
2013-09-07, 02:55:04,VALID,917.232,VALID,0,VALID,89.2702,VALID,0,VALID,18.2433,VALID,138,VALID,0,
2013-09-07, 02:56:04,VALID,917.216,VALID,0,VALID,89.3617,VALID,0,VALID,18.2225,VALID,138,VALID,0,
2013-09-07, 02:57:04,VALID,917.19,VALID,0,VALID,89.5294,VALID,0,VALID,18.2225,VALID,138,VALID,0,
2013-09-07, 02:58:04,VALID,917.163,VALID,0,VALID,90.1012,VALID,0,VALID,18.1835,VALID,140,VALID,0,
2013-09-07, 02:59:04,VALID,917.159,VALID,0,VALID,90.6882,VALID,0,VALID,18.125,VALID,140,VALID,0,
2013-09-07, 03:00:04,VALID,917.148,VALID,0,VALID,91.2142,VALID,0,VALID,18.086,VALID,140,VALID,0,
2013-09-07, 03:01:04,VALID,917.151,VALID,0,VALID,91.6563,VALID,0,VALID,18.047,VALID,140,VALID,0,
2013-09-07, 03:02:04,VALID,917.152,VALID,0,VALID,92.0223,VALID,0,VALID,18.0275,VALID,140,VALID,0,
2013-09-07, 03:03:04,VALID,917.148,VALID,0,VALID,92.2205,VALID,0,VALID,18.0275,VALID,140,VALID,0,
2013-09-07, 03:04:04,VALID,917.129,VALID,0,VALID,92.3196,VALID,0,VALID,17.9899,VALID,140,VALID,0,
2013-09-07, 03:05:04,VALID,917.106,VALID,0,VALID,92.4187,VALID,0,VALID,17.9704,VALID,140,VALID,0,
2013-09-07, 03:06:04,VALID,917.094,VALID,0,VALID,92.3882,VALID,0,VALID,17.9301,VALID,124,VALID,0,
2013-09-07, 03:07:04,VALID,917.083,VALID,0,VALID,92.3653,VALID,0,VALID,17.9314,VALID,124,VALID,0,
2013-09-07, 03:08:04,VALID,917.097,VALID,0,VALID,92.3501,VALID,0,VALID,17.8911,VALID,124,VALID,0,
2013-09-07, 03:09:04,VALID,917.093,VALID,0,VALID,92.2967,VALID,0,VALID,17.9119,VALID,124,VALID,0,
2013-09-07, 03:10:04,VALID,917.099,VALID,0,VALID,92.3043,VALID,0,VALID,17.9106,VALID,125,VALID,0,
2013-09-07, 03:11:04,VALID,917.088,VALID,0,VALID,92.4034,VALID,0,VALID,17.9314,VALID,126,VALID,0,
2013-09-07, 03:12:04,VALID,917.108,VALID,0,VALID,92.2738,VALID,0,VALID,17.9509,VALID,126,VALID,0,
2013-09-07, 03:13:04,VALID,917.084,VALID,0,VALID,92.1442,VALID,0,VALID,17.9301,VALID,126,VALID,0,
2013-09-07, 03:14:04,VALID,917.077,VALID,0,VALID,92.0375,VALID,0,VALID,17.9496,VALID,126,VALID,0,
2013-09-07, 03:15:04,VALID,917.091,VALID,0,VALID,91.9613,VALID,0,VALID,17.9496,VALID,126,VALID,0,
2013-09-07, 03:16:04,VALID,917.075,VALID,0,VALID,91.8622,VALID,0,VALID,17.9704,VALID,126,VALID,0,
2013-09-07, 03:17:04,VALID,917.072,VALID,0,VALID,91.8698,VALID,0,VALID,17.9496,VALID,126,VALID,0,
2013-09-07, 03:18:04,VALID,917.045,VALID,0,VALID,91.9765,VALID,0,VALID,17.9301,VALID,126,VALID,0,
2013-09-07, 03:19:04,VALID,917.058,VALID,0,VALID,92.1671,VALID,0,VALID,17.9106,VALID,135,VALID,0,
2013-09-07, 03:20:04,VALID,917.054,VALID,0,VALID,92.3272,VALID,0,VALID,17.8925,VALID,125,VALID,0,
2013-09-07, 03:21:04,VALID,917.029,VALID,0,VALID,92.5711,VALID,0,VALID,17.873,VALID,140,VALID,0,
2013-09-07, 03:22:04,VALID,916.994,VALID,0,VALID,92.838,VALID,0,VALID,17.8131,VALID,160,VALID,0,
2013-09-07, 03:23:04,VALID,917,VALID,0,VALID,93.0972,VALID,0,VALID,17.7741,VALID,159,VALID,0,
2013-09-07, 03:24:04,VALID,917.011,VALID,0,VALID,93.4021,VALID,0,VALID,17.7547,VALID,122,VALID,0,
2013-09-07, 03:25:04,VALID,916.979,VALID,0,VALID,93.6308,VALID,0,VALID,17.7352,VALID,135,VALID,0,
2013-09-07, 03:26:04,VALID,916.993,VALID,0,VALID,93.8976,VALID,0,VALID,17.6962,VALID,142,VALID,0,
2013-09-07, 03:27:04,VALID,916.974,VALID,0,VALID,94.1949,VALID,0,VALID,17.6767,VALID,148,VALID,0,
2013-09-07, 03:28:04,VALID,916.965,VALID,0,VALID,94.3855,VALID,0,VALID,17.6377,VALID,140,VALID,0,
2013-09-07, 03:29:04,VALID,916.974,VALID,0,VALID,94.599,VALID,0,VALID,17.6391,VALID,128,VALID,0,
2013-09-07, 03:30:04,VALID,916.976,VALID,0,VALID,94.6981,VALID,0,VALID,17.6182,VALID,135,VALID,0,
2013-09-07, 03:31:04,VALID,916.999,VALID,0,VALID,94.7438,VALID,0,VALID,17.6182,VALID,135,VALID,0,
2013-09-07, 03:32:04,VALID,916.983,VALID,0,VALID,94.7743,VALID,0,VALID,17.6377,VALID,135,VALID,0,
2013-09-07, 03:33:04,VALID,916.988,VALID,0,VALID,94.7591,VALID,0,VALID,17.6391,VALID,124,VALID,0,
2013-09-07, 03:34:04,VALID,916.966,VALID,0,VALID,94.6295,VALID,0,VALID,17.6196,VALID,124,VALID,0,
2013-09-07, 03:35:04,VALID,916.97,VALID,0,VALID,94.5761,VALID,0,VALID,17.6196,VALID,130,VALID,0,
2013-09-07, 03:36:04,VALID,916.965,VALID,0,VALID,94.4617,VALID,0,VALID,17.6196,VALID,133,VALID,0,
2013-09-07, 03:37:04,VALID,916.958,VALID,0,VALID,94.3855,VALID,0,VALID,17.5987,VALID,119,VALID,0,
2013-09-07, 03:38:04,VALID,916.977,VALID,0,VALID,94.294,VALID,0,VALID,17.6001,VALID,114,VALID,0,
2013-09-07, 03:39:04,VALID,916.984,VALID,0,VALID,94.2712,VALID,0,VALID,17.5987,VALID,121,VALID,0,
2013-09-07, 03:40:04,VALID,916.965,VALID,0,VALID,94.2102,VALID,0,VALID,17.6196,VALID,117,VALID,0,
2013-09-07, 03:41:04,VALID,916.981,VALID,0,VALID,94.1873,VALID,0,VALID,17.5987,VALID,117,VALID,0,
2013-09-07, 03:42:04,VALID,916.956,VALID,0,VALID,94.1797,VALID,0,VALID,17.5792,VALID,117,VALID,0,
2013-09-07, 03:43:04,VALID,916.932,VALID,0,VALID,94.1339,VALID,0,VALID,17.5987,VALID,132,VALID,0,
2013-09-07, 03:44:04,VALID,916.94,VALID,0,VALID,94.0806,VALID,0,VALID,17.6391,VALID,149,VALID,0,
2013-09-07, 03:45:04,VALID,916.955,VALID,0,VALID,94.0501,VALID,0,VALID,17.6377,VALID,148,VALID,0,
2013-09-07, 03:46:04,VALID,916.974,VALID,0,VALID,93.9967,VALID,0,VALID,17.678,VALID,148,VALID,0,
2013-09-07, 03:47:04,VALID,916.958,VALID,0,VALID,93.9357,VALID,0,VALID,17.678,VALID,148,VALID,0,
2013-09-07, 03:48:04,VALID,916.949,VALID,0,VALID,93.8976,VALID,0,VALID,17.678,VALID,148,VALID,0,
2013-09-07, 03:49:04,VALID,916.981,VALID,0,VALID,93.8366,VALID,0,VALID,17.6585,VALID,148,VALID,0,
2013-09-07, 03:50:04,VALID,916.986,VALID,0,VALID,93.7604,VALID,0,VALID,17.6377,VALID,148,VALID,0,
2013-09-07, 03:51:04,VALID,917.014,VALID,0,VALID,93.6918,VALID,0,VALID,17.6572,VALID,148,VALID,0,
2013-09-07, 03:52:04,VALID,917.036,VALID,0,VALID,93.6537,VALID,0,VALID,17.678,VALID,148,VALID,0,
2013-09-07, 03:53:04,VALID,917.032,VALID,0,VALID,93.5698,VALID,0,VALID,17.6975,VALID,148,VALID,0,
2013-09-07, 03:54:04,VALID,917.047,VALID,0,VALID,93.4631,VALID,0,VALID,17.6975,VALID,101,VALID,0,
2013-09-07, 03:55:04,VALID,917.068,VALID,0,VALID,93.364,VALID,0,VALID,17.678,VALID,101,VALID,0,
2013-09-07, 03:56:04,VALID,917.082,VALID,0,VALID,93.2801,VALID,0,VALID,17.678,VALID,101,VALID,0,
2013-09-07, 03:57:04,VALID,917.081,VALID,0,VALID,93.303,VALID,0,VALID,17.6182,VALID,100,VALID,0,
2013-09-07, 03:58:04,VALID,917.057,VALID,0,VALID,93.4326,VALID,0,VALID,17.5792,VALID,73,VALID,0,
2013-09-07, 03:59:04,VALID,917.092,VALID,0,VALID,93.5851,VALID,0,VALID,17.5806,VALID,73,VALID,0,
2013-09-07, 04:00:04,VALID,917.094,VALID,0,VALID,93.6537,VALID,0,VALID,17.5806,VALID,80,VALID,0,